Location: Naloco
(16.5478°S, 37.1017°E)
Time: 02:57:08
(UTC+00:00)

ATLAS 3B R/B - Pass Details

Date: 13 August 2020
Orbit: 1016 x 1179 km, 63.8° (Epoch: 22 September)

Event Time Altitude Azimuth Distance (km) Brightness Sun altitude
Rises 18:02:30 0° 219° (SW) 3,906 6.0 -38.6°
Reaches altitude 10° 18:05:26 10° 227° (SW) 2,919 5.4 -39.3°
Maximum altitude 18:11:33 35° 290° (WNW) 1,633 3.9 -40.7°
Enters shadow 18:11:47 35° 294° (WNW) 1,634 3.9 -40.8°
